Weather in Dalisichi

Russia / Bryansk Oblast     53°08′28″N   32°23′15″E
temp.,
°C
wind,
m/s
gust,
m/s
humid.,
%
clouds,
%
prec.,
mm/h
press.,
hPa
HPBL,
m
15 may, sat
sat1500:00+12ssw229313 0.1 100734
03:00+11s349648 0.1 100780
06:00+11ssw25975 0.4 1007114
09:00+16ssw367910 0.4 1007511
12:00+19ssw45625 0.4 10081187
15:00+19sw466521 1.9 10071264
18:00+17sw468268 2.2 1008504
21:00+13ssw39948 5.3 1009208
16 may, sun
sun1600:00+12ssw399541 0.2 1010204
03:00+11ssw389697 0.2 1010198
06:00+11ssw389776 0.0 1011216
09:00+15sw358430 0.0 1012529
12:00+19ssw346489 0.1 10131346
15:00+19s2465100 0.1 1013973
18:00+18se237156 0.1 1012311
21:00+14ese2284100 0.1 101220
17 may, mon
mon1700:00+12ese2289100 0.0 101242
03:00+12ese239396 0.0 101249
06:00+12e3891100 0.0 1011176
09:00+18e5973100 0.1 1009429
12:00+22e586231 0.5 10071032
15:00+25se6115195 0.5 10041719
18:00+23se596585 0.0 10031186
21:00+18se388597 0.0 1003165
18 may, tue
tue1800:00+15se2696100 0.0 1003120
03:00+14ese399831 1.6 1002258
06:00+15se499980 0.7 1001370
09:00+17sse6108677 1.1 1000992
12:00+15se51093100 0.3 1001871
15:00+15sse4896100 4.4 1000464
18:00+16sw59885 1.1 1002810
21:00+14sse2292100 1.4 100232
19 may, wed
wed1900:00+13ssw2397100 0.9 100267
03:00+13w2499100 3.2 1001144
06:00+12wnw3797100 0.6 1001402
09:00+11w51094100 0.6 1002528
12:00+11wnw41095100 0.9 1003717
15:00+12w61185100 1.6 10041127
18:00+12wsw4984100 0.3 1005995
21:00+11wsw41187100 0.6 1007377